TimeEDT,TemperatureF,Dew PointF,Humidity,Sea Level PressureIn,VisibilityMPH,Wind Direction,Wind SpeedMPH,Gust SpeedMPH,PrecipitationIn,Events,Conditions,WindDirDegrees,DateUTC
12:52 AM,69.1,66.9,93,29.84,6.0,South,3.5,-,N/A,,Clear,190,2013-08-31 04:52:00
1:52 AM,69.1,66.9,93,29.83,6.0,SSW,5.8,-,N/A,,Scattered Clouds,200,2013-08-31 05:52:00
2:01 AM,69.1,66.9,93,29.83,6.0,SSW,5.8,-,N/A,,Mostly Cloudy,200,2013-08-31 06:01:00
2:52 AM,70.0,68.0,93,29.83,6.0,SSW,6.9,-,N/A,,Overcast,210,2013-08-31 06:52:00
3:12 AM,70.0,68.0,93,29.84,6.0,SW,8.1,-,N/A,,Overcast,230,2013-08-31 07:12:00
3:52 AM,71.1,69.1,93,29.83,5.0,SW,5.8,-,N/A,,Overcast,230,2013-08-31 07:52:00
4:52 AM,72.0,69.1,91,29.83,5.0,Variable,4.6,-,N/A,,Overcast,0,2013-08-31 08:52:00
5:36 AM,72.0,69.1,91,29.83,6.0,SW,8.1,-,N/A,,Overcast,220,2013-08-31 09:36:00
5:52 AM,72.0,69.1,91,29.83,6.0,Variable,6.9,-,N/A,,Overcast,0,2013-08-31 09:52:00
6:52 AM,72.0,69.1,91,29.83,6.0,South,6.9,-,N/A,,Overcast,190,2013-08-31 10:52:00
7:52 AM,73.0,69.1,87,29.84,6.0,SSW,5.8,-,N/A,,Overcast,210,2013-08-31 11:52:00
8:52 AM,73.9,69.1,85,29.84,7.0,South,4.6,-,N/A,,Overcast,190,2013-08-31 12:52:00
9:52 AM,73.9,70.0,87,29.85,7.0,SSW,6.9,-,N/A,,Overcast,200,2013-08-31 13:52:00
10:52 AM,77.0,70.0,79,29.85,8.0,South,6.9,-,N/A,,Overcast,190,2013-08-31 14:52:00
11:24 AM,79.0,71.1,77,29.84,9.0,SSW,9.2,-,N/A,,Overcast,210,2013-08-31 15:24:00
11:52 AM,78.1,70.0,76,29.83,9.0,SSW,6.9,-,N/A,,Mostly Cloudy,210,2013-08-31 15:52:00
12:52 PM,79.0,71.1,77,29.83,9.0,SW,9.2,-,N/A,,Mostly Cloudy,230,2013-08-31 16:52:00
1:35 PM,78.1,70.0,76,29.83,8.0,SSW,11.5,-,N/A,,Scattered Clouds,210,2013-08-31 17:35:00
1:52 PM,78.1,70.0,76,29.83,8.0,SW,11.5,-,N/A,,Partly Cloudy,220,2013-08-31 17:52:00
2:52 PM,78.1,70.0,76,29.82,8.0,Variable,5.8,16.1,N/A,,Partly Cloudy,0,2013-08-31 18:52:00
3:22 PM,77.0,70.0,79,29.82,8.0,South,9.2,-,N/A,,Mostly Cloudy,190,2013-08-31 19:22:00
3:52 PM,75.9,70.0,82,29.83,8.0,SW,5.8,16.1,N/A,,Mostly Cloudy,220,2013-08-31 19:52:00
4:01 PM,75.9,70.0,82,29.83,8.0,SW,9.2,-,N/A,,Mostly Cloudy,220,2013-08-31 20:01:00
4:50 PM,75.2,69.8,83,29.82,8.0,SSW,9.2,18.4,N/A,,Mostly Cloudy,200,2013-08-31 20:50:00
4:52 PM,75.9,70.0,82,29.82,8.0,SSW,8.1,18.4,N/A,,Mostly Cloudy,200,2013-08-31 20:52:00
5:52 PM,75.0,70.0,84,29.82,8.0,South,9.2,-,N/A,,Partly Cloudy,190,2013-08-31 21:52:00
6:52 PM,73.9,70.0,87,29.82,8.0,SSW,10.4,16.1,N/A,,Scattered Clouds,200,2013-08-31 22:52:00
7:05 PM,73.9,70.0,87,29.82,8.0,South,9.2,-,N/A,,Mostly Cloudy,190,2013-08-31 23:05:00
7:52 PM,73.9,70.0,87,29.83,9.0,SSW,9.2,-,N/A,,Overcast,200,2013-08-31 23:52:00
8:52 PM,73.0,70.0,90,29.83,9.0,SSW,8.1,-,N/A,,Overcast,210,2013-09-01 00:52:00
9:52 PM,73.0,69.1,87,29.85,9.0,SSW,6.9,-,N/A,,Overcast,200,2013-09-01 01:52:00
10:52 PM,73.0,69.1,87,29.84,9.0,SSW,10.4,16.1,N/A,,Mostly Cloudy,200,2013-09-01 02:52:00
11:52 PM,73.0,69.1,87,29.85,9.0,SSW,9.2,17.3,N/A,,Overcast,210,2013-09-01 03:52:00